Temperature
13 12 12 12 12 12 12 12 12 12 12 12 12 12 12 12 12 12 12 11 11 11 10 10 10 10 10 10 9 9 9 9 9 9 9 9 9 9 9 9 9 9 9
12 12 12 12 12 12 12 12 12 12 12 12 12 12 12 12 12 12 12 11 11 11 10 10 10 10 10 10 9 9 9 9 9 8 8 9 9 9 9 9 9 9 9
12 12 12 12 12 12 12 12 12 12 12 12 12 11 11 11 11 11 12 12 11 11 11 10 10 10 10 10 10 9 9 9 9 8 9 9 10 9 9 9 9 9 9
12 11 11 12 12 12 12 12 12 12 12 12 11 11 11 11 12 12 12 12 11 11 11 11 10 10 10 10 10 9 9 9 9 9 9 9 9 9 9 9 9 9 8
11 11 11 12 12 12 12 12 12 12 12 12 11 11 11 11 11 11 11 12 11 11 11 11 10 10 10 10 10 10 9 9 9 9 9 9 9 8 8 9 8 8 8
11 11 11 11 11 11 12 12 11 11 11 11 11 11 11 11 11 11 11 11 12 12 11 11 11 10 10 10 10 10 9 9 9 9 9 9 9 8 8 8 8 8 8
10 10 10 11 11 11 11 11 11 11 11 11 11 12 12 12 12 12 12 12 12 12 12 12 11 11 11 11 10 10 10 9 9 9 9 9 8 8 8 8 8 7 7
9 9 9 10 10 10 11 11 11 11 11 11 11 12 12 12 12 12 12 12 13 13 13 12 12 11 11 11 10 10 10 9 9 9 9 9 9 8 8 8 8 7 7
9 9 9 9 10 10 10 11 11 11 11 11 12 12 12 12 12 12 13 13 13 13 13 12 12 12 11 11 10 10 10 10 9 9 9 9 9 9 8 8 8 7 7
9 9 9 9 9 9 10 10 10 11 11 11 11 12 12 13 13 12 13 13 13 13 13 12 12 12 11 11 11 10 10 10 10 9 9 9 9 8 8 8 8 7 6
8 8 8 8 9 9 9 10 10 10 11 11 11 11 12 12 12 12 13 13 13 13 13 12 12 12 11 11 11 11 10 10 10 9 9 9 9 8 8 8 7 7 7
7 7 8 8 8 9 9 9 10 10 10 11 11 11 12 12 12 12 13 13 13 13 13 12 12 12 11 11 11 10 10 10 10 9 9 9 9 8 8 8 7 7 7
7 7 7 7 8 8 8 9 9 10 10 10 11 11 11 12 12 12 12 13 13 13 13 12 12 12 11 11 11 10 10 10 10 10 9 9 9 8 8 8 7 7 6
6 6 6 7 7 7 8 8 9 9 10 10 10 11 11 11 12 12 12 12 12 12 12 12 12 12 11 11 11 10 10 10 10 9 9 9 9 8 8 7 7 7 6
6 6 6 6 6 7 8 8 9 9 10 10 10 11 11 11 11 11 12 12 12 12 12 11 11 11 11 11 11 10 10 10 10 9 9 9 8 8 7 7 7 6 6
6 5 5 5 6 6 7 7 8 8 9 10 10 11 11 11 11 11 11 11 11 11 11 11 11 11 11 11 11 10 10 10 9 9 9 8 8 8 7 7 6 6 6
5 5 5 5 5 6 6 7 7 8 8 9 9 10 10 10 11 11 11 11 11 11 11 11 11 11 11 11 10 10 10 9 9 9 9 8 8 7 7 6 6 6 5
4 4 5 5 5 6 6 6 7 7 8 8 9 9 10 10 10 10 11 11 11 11 10 10 10 10 10 10 10 10 9 9 9 9 8 8 8 7 7 6 6 5 5
4 4 4 5 5 5 6 6 6 7 7 8 8 9 9 9 10 10 10 10 10 10 10 10 10 10 10 10 10 9 9 9 9 8 8 8 7 7 6 6 5 5 4
3 4 4 5 5 5 5 6 6 6 7 7 8 8 9 9 9 10 10 10 10 10 10 10 10 10 10 10 9 9 9 8 8 8 8 7 7 6 6 6 5 4 4
3 4 4 5 5 5 5 5 6 6 6 7 8 8 8 9 9 9 9 9 9 9 10 9 9 9 9 9 9 9 9 8 8 8 7 7 6 6 6 5 5 4 3
3 3 4 4 5 5 5 5 5 6 6 7 7 8 8 8 9 8 9 9 9 9 9 9 9 9 9 9 9 8 8 8 8 8 7 7 6 6 5 5 4 3 3
2 3 4 4 5 5 5 5 5 5 6 6 7 7 7 8 8 8 8 8 9 9 8 8 8 8 8 8 8 8 8 8 8 7 7 6 6 5 4 4 3 3 2
2 3 3 4 4 5 5 5 5 5 6 6 6 6 7 7 7 8 8 8 8 8 8 8 8 8 8 8 8 7 7 7 7 7 6 6 5 4 4 3 3 2 2
2 2 3 3 4 4 4 5 5 5 5 5 6 6 6 6 7 7 7 8 8 8 8 8 8 8 8 8 8 8 7 7 7 6 6 5 4 4 3 3 2 2 1
1 2 2 3 3 4 4 4 5 5 5 5 5 5 6 6 6 6 7 7 8 8 8 8 8 8 8 8 7 7 7 7 6 6 5 5 4 4 3 3 2 1 1
Wind_Speed
15 14 15 16 16 16 17 18 18 18 16 14 14 13 14 14 13 14 17 18 17 18 15 11 13 12 11 11 11 9 9 7 5 4 3 4 4 4 4 4 4 4 4
12 12 13 14 15 17 18 18 19 19 18 15 14 13 13 13 14 13 16 18 18 18 15 15 13 13 11 12 12 10 8 6 6 5 4 3 5 5 4 4 4 4 4
12 12 12 14 15 16 18 16 18 19 19 18 13 12 11 11 12 14 14 17 19 19 17 17 15 14 13 12 13 13 11 8 8 7 4 3 3 3 4 5 5 4 4
10 11 12 13 14 15 15 16 17 17 18 18 16 17 16 15 15 15 14 16 18 19 19 18 17 15 13 13 13 13 11 10 8 7 5 3 1 2 2 4 4 4 4
9 10 11 12 13 13 13 14 16 17 18 19 19 19 17 16 13 15 17 17 17 18 19 18 17 16 14 14 14 14 13 11 10 7 6 5 4 4 3 3 3 4 4
7 8 8 9 10 10 11 12 15 17 18 19 20 21 21 19 18 19 18 16 14 15 19 18 17 17 15 15 14 14 14 12 11 9 8 6 5 5 5 5 4 4 3
5 6 7 8 9 10 12 12 15 17 18 19 20 21 22 22 21 20 19 17 15 15 19 18 18 16 16 15 15 14 14 14 13 11 9 8 7 5 5 5 4 4 3
5 6 6 7 8 9 11 13 14 16 17 19 20 20 22 18 17 20 18 18 16 16 19 20 19 18 17 16 15 13 13 12 12 12 11 8 7 6 5 4 4 4 4
6 6 6 6 7 8 10 13 15 15 16 17 19 19 21 21 20 20 19 17 16 15 19 20 19 18 18 17 16 13 14 13 12 12 12 9 7 6 6 5 5 4 4
8 7 7 6 6 7 8 10 14 15 15 16 17 16 19 21 20 19 20 19 19 18 19 20 19 19 18 17 16 13 14 14 12 10 11 10 7 6 6 5 5 5 5
9 8 7 7 6 6 6 8 11 13 14 15 16 17 18 19 19 18 19 19 19 19 19 19 19 19 18 17 16 15 15 15 13 12 12 11 10 7 6 6 5 5 5
9 8 8 7 6 6 6 6 9 11 13 14 15 16 17 17 18 19 19 19 19 19 19 19 18 18 18 18 17 17 16 16 15 14 12 12 9 9 7 6 6 5 5
10 9 8 7 7 6 6 6 7 9 11 12 13 14 16 18 19 19 19 19 18 18 18 18 18 18 18 18 17 17 16 15 15 14 13 12 11 10 8 7 6 5 4
11 10 9 8 8 7 6 6 7 7 9 11 12 14 16 17 17 17 18 18 18 18 18 18 18 18 17 17 16 16 15 14 13 12 12 12 12 11 10 8 7 6 5
11 10 10 9 9 8 7 6 7 7 8 10 11 13 13 14 15 16 17 17 17 17 17 16 17 17 15 15 16 15 15 14 13 11 11 10 10 10 8 7 7 7 5
12 11 11 10 10 9 8 7 7 6 7 9 11 11 11 13 14 14 15 15 16 16 16 16 16 17 13 16 19 16 14 13 13 12 10 9 10 10 10 9 8 7 6
12 12 11 10 10 9 8 8 7 6 6 7 9 10 10 12 13 12 14 15 16 15 15 16 16 16 16 19 20 18 14 13 12 12 11 8 8 10 9 9 9 7 5
13 12 11 10 10 9 8 8 6 5 6 6 7 8 10 11 12 13 13 14 14 14 14 14 15 14 15 20 21 20 14 11 11 11 12 11 11 10 11 9 8 6 4
12 11 11 11 10 9 8 7 5 5 5 6 7 7 8 10 11 12 13 12 13 13 13 13 14 14 14 20 22 20 12 10 10 10 11 12 11 14 15 11 9 8 5
11 11 11 10 9 8 7 6 5 5 5 6 6 7 8 9 10 12 12 11 11 12 11 11 12 13 14 19 22 21 11 11 10 9 9 12 13 16 16 11 10 9 7
12 11 10 9 9 8 6 6 6 6 6 5 5 6 7 8 9 10 10 10 10 11 11 11 10 11 13 18 22 21 12 12 11 9 8 9 16 17 16 11 8 10 9
13 12 11 10 9 7 6 6 7 6 4 4 5 5 6 6 7 9 9 10 11 11 11 10 10 8 10 14 18 20 16 15 12 10 9 10 18 17 15 10 11 14 11
13 12 12 11 9 7 6 7 7 5 4 4 4 4 5 5 7 9 10 10 10 10 10 10 9 8 8 11 18 19 18 17 11 10 14 17 19 16 12 12 15 12 7
13 12 11 10 9 8 7 7 6 5 4 4 4 4 5 5 6 7 8 9 10 10 11 11 10 10 9 10 11 12 12 14 12 12 15 18 17 12 11 12 10 6 5
13 12 11 10 10 8 7 6 5 4 3 4 4 4 5 6 6 5 6 7 8 10 12 11 12 13 12 12 16 14 12 12 12 14 10 9 9 8 7 7 6 5 5
13 12 11 10 10 8 6 6 5 4 4 4 4 4 4 5 6 6 3 3 5 8 10 11 12 10 12 19 19 19 19 21 23 16 11 10 10 9 9 8 7 6 5
Wind_Direction
242 232 227 222 216 213 210 205 200 195 189 186 186 186 187 183 184 185 185 186 186 187 187 185 185 185 187 187 186 182 181 184 180 187 199 204 209 215 208 212 214 209 218
237 226 221 218 213 211 209 205 201 197 194 192 190 191 189 188 186 185 187 189 189 190 190 190 189 189 190 190 188 185 187 182 189 197 199 207 197 204 215 214 219 226 221
235 225 220 216 213 210 207 204 201 199 197 192 188 187 189 188 187 188 188 191 192 193 193 194 193 192 193 193 192 191 193 189 191 203 208 213 214 186 190 209 216 222 231
243 230 224 219 214 212 207 204 201 199 197 193 192 191 194 194 194 189 188 190 194 195 196 196 197 195 196 196 196 197 198 195 192 197 221 240 244 223 197 191 204 217 231
246 234 229 224 219 213 208 204 201 200 198 197 196 198 203 200 193 188 188 190 193 196 197 198 198 198 198 199 197 196 199 199 200 196 195 207 219 237 241 232 212 212 212
261 252 243 235 228 219 211 207 204 204 200 200 200 202 204 199 193 189 188 190 192 195 198 199 199 199 199 199 197 196 199 201 203 202 200 199 203 211 220 239 248 249 222
290 275 259 242 233 223 213 208 209 208 203 202 204 206 206 201 199 195 191 190 191 195 197 196 200 200 200 197 196 196 199 202 203 204 206 209 218 213 218 235 249 255 246
319 305 287 263 244 229 219 211 212 212 206 204 206 209 206 203 203 201 195 194 195 196 195 196 198 199 197 195 195 197 199 201 203 207 207 209 213 211 213 220 232 251 248
335 326 313 287 261 243 228 217 215 217 210 208 208 210 207 204 203 202 199 198 197 194 193 194 196 198 196 194 193 197 198 199 203 206 207 208 208 208 212 216 220 235 259
334 332 325 309 284 258 243 230 221 220 215 212 211 210 208 206 204 202 200 198 196 192 192 193 194 195 195 194 194 197 198 198 201 202 202 204 204 203 203 206 214 225 239
332 328 325 314 298 273 253 239 228 224 218 215 215 210 209 208 204 204 202 199 196 193 193 192 192 192 194 194 195 197 195 198 199 197 201 202 201 198 197 197 204 214 222
329 328 327 321 307 290 269 252 236 227 220 217 218 213 209 207 206 206 203 199 196 194 192 190 190 191 193 194 195 197 196 197 199 197 198 201 196 198 197 194 200 207 210
330 330 327 321 313 293 277 264 250 236 224 220 220 215 208 205 207 207 203 198 195 193 191 189 190 190 191 192 195 196 196 198 198 196 196 197 194 198 196 193 197 199 198
327 327 322 320 315 304 285 273 264 251 233 220 219 214 209 206 206 205 203 197 194 191 190 190 190 189 189 190 191 193 194 194 195 194 195 194 194 196 193 192 193 185 181
319 322 320 318 316 308 296 283 274 261 242 224 221 216 211 206 203 203 200 196 193 191 188 188 188 188 188 189 187 188 189 189 187 188 190 189 187 188 183 178 180 176 173
312 315 316 316 313 308 298 291 282 269 248 229 222 215 208 203 200 199 196 193 191 189 187 187 187 188 189 181 179 180 183 184 183 181 179 175 174 171 165 161 162 165 170
309 310 309 308 309 306 298 287 280 272 251 234 222 210 205 203 196 193 193 191 188 186 186 187 186 188 186 174 175 174 177 179 180 178 172 166 167 166 163 155 147 145 142
307 307 305 306 305 303 298 289 281 268 245 231 220 209 203 201 195 191 191 190 187 185 185 185 186 185 181 171 172 168 175 175 176 176 172 167 165 165 159 152 147 143 138
304 302 302 301 300 300 299 289 283 274 253 234 218 209 206 200 195 192 190 188 184 183 183 184 183 182 177 169 168 164 172 169 167 167 167 165 163 159 154 150 144 136 122
306 305 302 298 297 300 298 287 283 275 259 244 224 213 207 201 197 194 190 184 182 179 176 178 181 179 176 169 166 165 168 164 160 158 160 163 160 158 157 157 153 150 146
307 307 301 296 295 296 294 287 282 277 266 249 232 217 207 201 197 192 186 179 175 171 170 169 173 175 172 167 167 167 169 165 160 159 161 162 157 156 158 156 156 153 148
309 310 304 295 293 292 288 284 283 286 278 248 232 217 207 196 188 183 180 174 169 168 167 164 163 166 164 165 169 168 167 160 159 160 159 155 155 155 155 150 142 141 138
307 308 303 297 292 288 282 281 286 290 281 255 231 215 205 190 181 178 176 173 171 170 168 166 165 161 158 162 163 164 161 154 151 150 149 147 150 149 147 140 142 142 139
305 307 306 297 293 291 284 279 284 284 264 247 227 208 194 185 181 177 176 176 177 173 170 168 165 161 159 159 160 159 154 146 137 134 138 139 139 134 135 140 141 137 141
302 302 300 295 291 290 285 282 280 277 260 240 221 208 196 183 178 177 183 184 188 181 175 174 169 167 171 171 162 157 158 155 147 138 135 139 143 142 140 139 136 136 140
301 301 299 296 293 290 285 281 274 265 250 233 219 208 198 185 170 160 145 138 164 159 166 168 165 164 157 153 154 154 150 146 146 141 147 152 155 156 154 153 151 150 153
Height
1416 1418 1420 1423 1426 1429 1432 1435 1439 1443 1448 1452 1457 1462 1466 1471 1476 1481 1486 1490 1495 1499 1502 1506 1509 1512 1515 1518 1521 1524 1526 1528 1530 1533 1534 1534 1534 1535 1535 1535 1535 1535 1535
1411 1412 1415 1417 1419 1422 1426 1429 1433 1437 1442 1447 1452 1457 1462 1466 1471 1476 1481 1486 1490 1494 1498 1502 1506 1509 1512 1515 1518 1520 1523 1525 1528 1530 1533 1534 1535 1533 1533 1533 1533 1533 1533
1406 1408 1410 1412 1414 1417 1420 1423 1427 1432 1436 1441 1447 1453 1458 1461 1466 1470 1475 1480 1485 1490 1494 1498 1502 1505 1508 1511 1514 1517 1520 1522 1525 1527 1530 1531 1531 1532 1531 1530 1530 1531 1530
1403 1404 1405 1407 1409 1412 1415 1419 1422 1426 1431 1436 1440 1445 1448 1452 1457 1463 1469 1475 1480 1485 1489 1494 1498 1501 1504 1508 1511 1514 1517 1519 1521 1524 1525 1528 1528 1529 1530 1529 1528 1528 1528
1399 1400 1401 1402 1405 1407 1410 1413 1417 1421 1425 1429 1434 1439 1443 1448 1454 1459 1464 1470 1475 1480 1484 1489 1493 1497 1500 1504 1507 1510 1513 1516 1518 1520 1522 1523 1524 1526 1527 1527 1527 1526 1525
1396 1396 1397 1399 1401 1403 1405 1409 1412 1416 1420 1424 1428 1433 1437 1443 1448 1452 1458 1463 1469 1474 1479 1483 1488 1492 1495 1499 1502 1506 1509 1512 1514 1516 1518 1520 1521 1522 1523 1524 1524 1524 1522
1393 1393 1393 1394 1395 1397 1400 1402 1406 1410 1414 1418 1422 1426 1431 1436 1441 1446 1451 1457 1462 1467 1471 1477 1482 1486 1490 1494 1498 1501 1504 1507 1510 1512 1514 1516 1518 1519 1520 1521 1521 1521 1519
1391 1390 1390 1390 1391 1392 1394 1397 1400 1403 1407 1411 1416 1420 1426 1430 1436 1441 1445 1450 1455 1461 1466 1471 1476 1481 1485 1489 1493 1496 1500 1503 1505 1508 1510 1512 1514 1515 1516 1517 1518 1517 1517
1389 1388 1387 1387 1388 1388 1390 1392 1395 1398 1401 1405 1409 1414 1419 1423 1429 1434 1440 1445 1450 1455 1460 1465 1470 1475 1480 1483 1487 1491 1494 1498 1501 1503 1506 1507 1509 1511 1512 1513 1513 1515 1513
1388 1386 1385 1385 1385 1385 1386 1388 1390 1392 1395 1399 1404 1408 1412 1417 1422 1427 1432 1438 1444 1449 1454 1459 1464 1469 1474 1478 1482 1485 1489 1492 1495 1498 1500 1502 1504 1506 1507 1508 1509 1509 1509
1387 1385 1384 1383 1382 1382 1382 1383 1386 1388 1391 1394 1398 1401 1406 1410 1415 1420 1426 1431 1437 1442 1447 1452 1458 1462 1467 1471 1476 1479 1483 1486 1490 1492 1495 1497 1499 1501 1502 1503 1504 1504 1505
1386 1384 1382 1380 1379 1378 1378 1379 1381 1383 1385 1388 1392 1395 1399 1404 1408 1413 1419 1425 1430 1436 1441 1446 1451 1456 1461 1465 1469 1473 1477 1480 1484 1487 1489 1492 1494 1496 1497 1498 1499 1499 1500
1384 1381 1379 1378 1377 1376 1375 1375 1376 1378 1380 1383 1386 1389 1393 1397 1402 1406 1412 1418 1423 1429 1434 1439 1444 1449 1454 1459 1463 1467 1471 1475 1478 1481 1484 1486 1489 1490 1492 1493 1494 1495 1495
1382 1379 1377 1375 1373 1372 1371 1371 1372 1373 1375 1378 1380 1383 1386 1390 1395 1400 1406 1411 1417 1422 1427 1432 1438 1443 1448 1452 1457 1461 1465 1469 1472 1475 1478 1481 1483 1485 1487 1488 1489 1490 1491
1380 1378 1375 1373 1371 1369 1368 1368 1367 1368 1370 1372 1374 1376 1380 1384 1389 1394 1399 1405 1410 1415 1421 1426 1431 1437 1441 1446 1450 1455 1459 1463 1467 1470 1473 1476 1478 1481 1483 1484 1485 1486 1486
1378 1375 1373 1370 1368 1366 1364 1364 1363 1363 1364 1366 1368 1371 1374 1378 1383 1388 1393 1399 1404 1409 1415 1420 1425 1430 1435 1440 1445 1450 1454 1458 1461 1465 1468 1471 1474 1476 1478 1480 1481 1482 1483
1375 1372 1370 1367 1364 1362 1361 1360 1359 1359 1359 1361 1363 1365 1369 1373 1377 1382 1388 1392 1398 1404 1409 1414 1419 1424 1429 1435 1440 1445 1449 1453 1456 1460 1463 1466 1469 1472 1474 1475 1477 1478 1479
1371 1369 1366 1363 1361 1359 1357 1356 1355 1355 1355 1357 1359 1361 1365 1367 1372 1377 1382 1387 1393 1398 1403 1408 1414 1419 1424 1429 1435 1440 1445 1448 1452 1455 1459 1462 1464 1467 1469 1471 1473 1474 1475
1368 1365 1362 1360 1357 1355 1353 1352 1351 1351 1351 1352 1354 1357 1360 1363 1367 1372 1377 1382 1387 1393 1398 1403 1408 1413 1418 1424 1430 1435 1439 1443 1447 1451 1454 1457 1460 1463 1465 1467 1469 1470 1471
1364 1361 1359 1356 1354 1352 1350 1349 1348 1347 1347 1349 1351 1353 1356 1359 1363 1367 1372 1377 1383 1388 1393 1399 1404 1409 1414 1419 1424 1430 1434 1438 1442 1446 1450 1453 1456 1459 1461 1463 1465 1466 1467
1360 1357 1355 1352 1350 1349 1347 1346 1345 1345 1345 1346 1348 1350 1353 1356 1360 1364 1368 1373 1378 1384 1389 1394 1400 1405 1410 1414 1420 1425 1429 1433 1437 1441 1445 1449 1452 1455 1458 1460 1462 1463 1464
1356 1353 1350 1348 1346 1345 1344 1342 1342 1342 1342 1343 1345 1347 1350 1353 1356 1360 1364 1369 1374 1379 1384 1390 1395 1401 1406 1411 1415 1420 1425 1430 1433 1437 1441 1445 1449 1452 1455 1457 1459 1460 1461
1353 1349 1347 1344 1342 1342 1341 1340 1339 1339 1339 1340 1342 1344 1347 1349 1353 1357 1361 1365 1370 1374 1379 1385 1390 1395 1401 1406 1412 1416 1422 1426 1430 1434 1438 1442 1446 1449 1451 1454 1456 1457 1458
1349 1346 1343 1341 1339 1338 1338 1337 1336 1336 1337 1338 1339 1341 1343 1346 1350 1353 1357 1361 1365 1370 1375 1380 1385 1391 1396 1401 1406 1411 1417 1422 1426 1431 1435 1439 1442 1445 1448 1450 1452 1454 1456
1345 1343 1340 1338 1336 1335 1335 1334 1334 1334 1334 1334 1336 1338 1341 1343 1346 1350 1354 1358 1362 1366 1370 1375 1380 1385 1390 1396 1401 1406 1411 1416 1422 1426 1431 1435 1438 1441 1444 1447 1449 1451 1453
1341 1338 1336 1334 1333 1331 1331 1330 1330 1331 1331 1332 1333 1335 1338 1340 1343 1346 1351 1356 1360 1365 1369 1374 1378 1383 1388 1393 1399 1404 1409 1414 1419 1423 1427 1430 1434 1437 1440 1443 1446 1448 1450